Location: Karcze
(52.0945°N, 22.4786°E)
Time: 11:24:59
(UTC+00:00)

Tiangong - Pass Details

Date: 27 June 2021
Orbit: 373 x 386 km, 41.5° (Epoch: 31 July)

Event Time Altitude Azimuth Distance (km) Brightness Sun altitude
Exits shadow 00:34:23 12° 175° (S) 1,273 3.2 -10.1°
Maximum altitude 00:34:24 12° 175° (S) 1,273 3.2 -10.1°
Drops below altitude 10° 00:35:40 10° 151° (SSE) 1,387 3.6 -10.0°
Sets 00:38:44 0° 118° (ESE) 2,244 5.0 -9.7°
